SCP
0 0 0 0 0 0 0 0 0 0 0 0 0 0 0 0 0 0 0 0 0 0 0 0 0 0 0 0 0 0 0 0 0 0 0 0 0 0 0 0 0 0 0
0 0 0 0 0 0 0 0 0 0 0 0 0 0 0 0 0 0 0 0 0 0 0 0 0 0 0 0 0 0 0 0 0 0 0 0 0 0 0 0 0 0 0
0 0 0 0 0 0 0 0 0 0 0 0 0 0 0 0 0 0 0 0 0 0 0 0 0 0 0 0 0 0 0 0 0 0 0 0 0 0 0 0 0 0 0
0 0 0 0 0 0 0 0 0 0 0 0 0 0 0 0 0 0 0 0 0 0 0 0 0 0 0 0 0 0 0 0 0 0 0 0 0 0 0 0 0 0 0
0 0 0 0 0 0 0 0 0 0 0 0 0 0 0 0 0 0 0 0 0 0 0 0 0 0 0 0 0 0 0 0 0 0 0 0 0 0 0 0 0 0 0
0 0 0 0 0 0 0 0 0 0 0 0 0 0 0 0 0 0 0 0 0 0 0 0 0 0 0 0 0 0 0 0 0 0 0 0 0 0 0 0 0 0 0
0 0 0 0 0 0 0 0 0 0 0 0 0 0 0 0 0 0 0 0 0 0 0 0 0 0 0 0 0 0 0 0 0 0 0 0 0 0 0 0 0 0 0
0 0 0 0 0 0 0 0 0 0 0 0 0 0 0 0 0 0 0 0 0 0 0 0 0 0 0 0 0 0 0 0 0 0 0 0 0 0 0 0 0 0 0
0 0 0 0 0 0 0 0 0 0 0 0 0 0 0 0 0 0 0 0 0 0 0 0 0 0 0 0 0 0 0 0 0 0 0 0 0 0 0 0 0 0 0
0 0 0 0 0 0 0 0 0 0 0 0 0 0 0 0 0 0 0 0 0 0 0 0 0 0 0 0 0 0 0 0 0 0 0 0 0 0 0 0 0 0 0
0 0 0 0 0 0 0 0 0 0 0 0 0 0 0 0 0 0 0 0 0 0 0 0 0 0 0 0 0 0 0 0 0 0 0 0 0 0 0 0 0 0 0
0 0 0 0 0 0 0 0 0 0 0 0 0 0 0 0 0 0 0 0 0 0 0 0 0 0 0 0 0 0 0 0 0 0 0 0 0 0 0 0 0 0 0
0 0 0 0 0 0 0 0 0 -0 0 0 0 0 0 0 0 0 0 0 0 0 0 0 0 0 0 0 0 0 0 0 0 0 0 0 0 0 0 0 0 0 0
0 0 0 0 0 0 0 0 0 0 0 -0 0 0 0 0 0 0 0 0 0 0 0 0 0 0 0 0 0 0 0 0 0 0 0 0 0 0 0 0 0 0 0
0 0 0 0 0 0 0 0 0 0 0 0 0 0 0 0 0 0 0 0 0 0 0 0 0 0 0 0 0 0 0 0 0 0 0 0 0 0 0 0 0 0 0
0 0 0 0 0 0 0 0 0 0 0 0 0 0 0 0 0 0 0 0 0 0 0 0 0 0 0 0 0 0 0 0 0 0 0 0 0 0 0 0 0 0 0
0 0 0 0 0 0 0 0 0 0 0 0 0 0 0 0 0 0 0 0 0 0 0 0 0 0 0 0 0 0 0 0 0 0 0 0 0 0 0 0 0 0 0
-0 0 0 0 0 0 0 0 0 0 0 0 0 0 0 0 0 0 0 0 0 0 0 0 0 0 0 0 0 0 0 0 0 0 0 0 0 0 0 0 0 0 0
0 0 0 0 0 0 0 0 0 0 0 0 0 0 0 0 0 0 0 0 0 0 0 0 0 0 0 0 0 0 0 0 0 0 0 0 0 0 0 0 0 0 0
0 0 0 0 0 0 0 0 0 0 0 0 0 0 0 0 0 0 0 0 0 0 0 0 0 0 0 0 0 0 0 0 0 0 0 0 0 0 0 0 0 0 0
0 0 0 0 0 0 0 0 0 0 0 0 0 0 0 0 0 0 0 0 0 0 0 0 0 0 0 0 0 0 0 0 0 0 0 0 0 0 0 0 0 0 0
0 0 0 0 0 0 0 0 0 0 0 0 0 0 0 0 0 0 0 0 0 0 0 0 0 0 0 0 0 0 0 0 0 0 0 0 0 0 0 0 0 0 0
0 0 0 0 0 0 0 0 0 0 0 0 0 0 0 0 0 0 0 0 0 0 0 0 0 0 0 0 0 0 0 0 0 0 0 0 0 0 0 0 0 0 0
0 0 0 0 0 0 0 0 0 0 0 0 0 0 0 0 0 0 0 0 0 0 0 0 0 0 0 0 0 0 0 0 0 0 0 0 0 0 0 0 0 0 0
0 0 0 0 0 0 0 0 0 0 0 0 0 0 0 0 0 0 0 0 0 0 0 0 0 0 0 0 0 0 0 0 0 0 0 0 0 0 0 0 0 0 0
0 0 0 0 0 0 0 0 0 0 0 0 0 0 0 0 0 0 0 0 0 0 0 0 0 0 0 0 0 0 0 0 0 0 0 0 0 0 0 0 0 0 0
Wind_Speed_500mb
62 74 83 95 101 102 95 93 89 82 79 79 75 71 69 64 58 54 48 45 44 41 37 34 31 32 32 35 40 43 45 46 62 79 75 74 69 67 69 69 76 86 87
42 57 68 78 87 94 94 92 88 82 79 77 76 75 72 68 62 59 53 50 47 45 40 38 34 34 34 36 40 45 47 51 57 76 79 78 73 71 72 77 82 85 86
29 41 52 65 75 83 86 88 87 82 80 79 79 79 76 70 67 62 57 54 50 47 44 41 37 37 36 36 40 46 50 55 56 64 77 73 74 70 73 82 87 88 83
20 28 39 49 60 68 74 82 84 82 79 79 80 79 76 72 68 65 61 58 53 52 48 44 42 39 36 36 41 46 51 55 57 60 67 70 68 68 72 87 97 84 88
11 19 27 36 44 54 63 70 75 77 76 78 79 78 77 76 75 70 66 61 58 56 52 49 45 40 36 37 41 45 50 54 55 60 64 66 70 66 78 83 88 88 82
6 9 18 25 33 40 48 57 64 69 75 77 78 80 80 80 77 71 67 64 61 59 55 51 47 41 38 38 41 44 47 50 51 54 57 56 64 70 74 76 78 83 80
15 6 5 17 28 35 40 47 55 61 66 73 77 79 82 81 77 72 69 66 64 60 56 53 50 43 40 39 40 44 45 45 47 49 53 55 59 61 68 71 65 68 69
22 17 9 7 15 27 39 48 54 59 65 70 73 77 79 79 78 73 70 68 66 62 59 56 52 46 41 39 39 42 43 40 44 48 47 45 47 54 56 58 61 64 62
27 26 22 17 13 18 28 39 48 59 64 68 71 74 77 80 77 75 74 73 71 67 63 60 55 48 41 39 38 39 40 40 43 42 39 37 40 46 48 50 52 57 59
34 32 29 26 24 21 20 27 37 46 54 65 72 75 77 78 76 76 77 77 75 72 67 65 58 50 44 40 37 36 37 38 40 37 36 35 36 39 42 44 44 45 44
37 34 33 30 29 27 26 27 29 35 44 52 62 72 76 75 76 76 80 82 78 74 72 68 60 51 47 41 37 33 34 36 35 33 30 28 31 34 35 39 39 38 36
36 37 33 32 32 34 32 27 28 32 36 44 51 60 69 71 73 75 81 81 75 75 73 65 58 52 48 42 37 32 33 33 29 27 24 23 25 29 34 36 33 30 30
28 29 32 33 32 31 34 36 32 29 31 37 45 53 62 65 68 71 79 80 76 75 69 62 56 54 49 46 38 34 32 28 24 22 19 15 18 23 29 36 30 23 24
35 31 30 31 31 30 28 31 36 38 34 32 38 46 51 58 64 69 79 80 79 75 71 66 63 59 54 49 42 37 32 26 22 18 15 10 12 16 23 29 22 11 16
43 40 37 36 35 35 34 32 28 29 36 40 38 37 41 51 56 60 74 85 85 80 76 74 72 68 63 55 48 40 35 28 23 18 14 6 4 8 14 20 19 16 15
52 50 46 43 42 41 41 40 29 26 25 35 41 39 39 38 41 43 61 77 80 84 82 83 78 73 67 58 52 45 39 31 25 22 19 12 7 3 7 11 15 13 13
59 57 55 53 50 47 47 45 45 35 31 24 33 37 40 38 33 41 45 63 80 84 86 84 80 75 69 63 57 50 40 33 28 26 23 19 15 11 9 8 11 12 9
67 66 64 61 61 57 52 50 49 47 49 42 27 32 35 34 35 35 37 47 69 87 86 86 80 77 73 67 61 53 45 40 33 31 29 25 22 18 14 14 12 12 10
80 77 73 72 70 68 62 57 53 52 48 49 43 32 31 33 36 42 44 63 73 83 87 82 79 80 74 70 64 56 51 43 37 36 34 29 28 25 22 20 18 14 11
87 83 79 79 78 76 72 65 62 57 53 50 49 39 30 34 36 49 59 66 72 76 74 72 78 86 71 69 66 60 56 51 46 43 39 34 33 32 28 24 22 19 19
82 82 81 81 83 80 77 75 70 68 62 56 52 49 33 34 44 50 65 77 78 76 69 68 78 78 72 68 68 66 62 57 50 44 42 38 36 38 35 30 27 25 26
69 74 75 79 81 83 83 81 80 77 67 64 61 54 52 49 45 56 62 75 83 86 82 81 82 83 77 80 72 72 70 64 56 49 46 43 41 42 40 36 36 34 36
65 68 72 77 78 79 82 86 86 83 77 71 66 60 51 57 54 52 61 67 71 76 76 79 87 85 85 84 76 77 75 69 59 49 46 47 47 45 45 41 42 43 44
59 63 67 71 72 74 78 81 83 85 82 77 69 62 56 55 60 53 58 59 66 69 65 73 78 81 90 86 81 80 76 70 61 51 45 49 49 49 50 46 48 48 47
58 61 64 67 70 71 73 76 78 82 82 80 76 71 63 60 62 59 54 58 60 66 68 71 72 74 78 79 83 83 80 73 64 58 53 52 50 52 53 50 53 56 53
61 64 66 66 67 69 71 73 75 76 81 82 78 72 67 60 61 63 60 51 58 60 63 70 67 68 69 72 79 84 83 77 71 64 58 57 58 60 60 57 58 59 59
Wind_Direction_500mb
224 224 223 223 223 224 225 223 222 222 220 221 223 224 227 230 234 238 242 246 248 247 246 250 257 269 284 292 299 303 301 295 291 309 309 316 315 314 317 322 328 327 329
230 226 225 225 224 224 224 222 221 222 223 223 223 225 227 231 235 240 243 248 249 248 247 249 254 265 277 289 299 304 303 300 295 303 313 317 316 320 322 324 329 330 332
227 226 226 226 226 225 224 222 221 223 224 224 225 228 230 233 237 241 244 246 247 247 246 248 253 261 274 288 299 304 305 304 303 301 309 313 318 327 324 324 330 331 334
214 222 225 227 228 227 227 224 223 225 226 227 228 231 233 236 239 241 242 244 246 246 245 246 250 259 272 287 297 303 304 306 307 307 310 315 322 327 321 325 327 334 334
189 212 223 224 227 229 230 229 228 228 230 231 232 234 235 237 238 239 240 242 244 244 243 245 249 257 269 282 293 301 305 309 310 311 312 319 324 319 324 324 325 331 336
91 186 210 217 221 225 227 228 229 230 230 231 232 234 236 238 239 239 240 241 243 242 242 243 246 252 264 277 289 298 305 311 310 309 311 309 312 315 316 324 328 334 335
32 46 215 217 217 215 220 222 226 229 231 233 234 236 238 239 240 239 239 240 241 242 241 241 244 250 260 274 287 297 304 311 310 308 303 305 308 311 316 323 329 328 329
29 18 354 285 240 230 225 222 223 228 231 235 237 239 240 241 240 238 239 240 240 239 238 239 242 247 256 270 283 294 302 308 307 307 308 313 309 310 316 321 326 327 330
31 29 16 350 314 266 244 240 238 234 233 234 237 240 241 241 240 237 236 237 238 237 236 237 239 244 252 264 278 291 301 308 309 313 313 314 311 314 318 325 328 331 335
25 20 15 7 351 326 290 260 249 247 245 241 240 239 241 242 241 238 237 236 236 236 233 234 235 241 248 259 273 287 298 305 312 313 315 318 319 319 325 327 329 337 340
16 12 10 4 353 348 326 296 271 260 254 251 247 243 244 241 240 238 237 236 237 235 234 234 234 237 245 255 267 283 294 302 309 314 314 318 320 323 327 324 327 335 342
357 356 0 1 360 354 350 327 292 275 263 256 253 250 244 240 239 237 234 235 236 237 236 234 233 234 240 249 261 276 286 298 306 309 310 319 324 327 330 330 330 339 347
351 342 340 345 353 354 354 347 334 305 280 268 261 258 253 245 239 234 231 231 233 234 234 233 232 234 237 243 252 265 277 284 291 295 299 314 328 339 346 348 344 354 360
341 339 333 328 324 332 337 345 349 335 307 282 273 268 265 255 242 236 229 226 228 229 228 227 227 231 234 238 243 253 262 268 273 278 280 304 334 353 360 1 4 10 25
326 327 329 327 324 316 314 324 330 332 319 299 281 275 270 263 253 244 234 227 227 225 223 223 224 226 229 232 236 244 251 253 253 257 254 257 317 7 22 21 34 61 69
311 314 316 317 318 318 315 305 303 310 310 305 294 269 265 266 267 252 235 232 232 231 225 223 225 228 230 231 233 238 242 241 238 240 231 209 183 136 76 57 60 58 72
301 300 302 305 306 308 308 311 307 291 299 304 302 289 269 262 256 259 248 231 232 232 231 229 227 229 230 229 231 235 238 237 231 230 223 206 178 175 138 129 86 64 48
289 290 292 292 293 294 296 302 305 305 299 297 298 296 284 266 252 242 237 229 228 231 231 231 228 229 229 229 230 231 233 232 228 225 218 206 186 181 173 166 127 89 77
284 283 282 283 282 283 286 289 292 295 294 288 290 288 289 269 251 241 227 227 226 228 228 226 228 231 230 229 228 228 231 231 228 223 216 205 197 187 183 178 156 120 109
279 277 276 275 276 276 277 279 281 284 285 283 278 284 282 265 246 240 234 229 228 230 232 230 229 233 229 229 228 225 227 226 222 219 213 206 200 193 187 185 170 148 134
277 275 273 270 268 269 270 271 274 274 273 276 274 268 266 269 251 249 245 237 232 232 230 228 233 228 228 230 225 223 225 226 224 219 214 206 203 197 190 187 180 162 152
277 275 273 270 268 266 265 266 267 269 271 273 276 271 259 251 245 246 250 252 243 239 235 234 236 227 229 231 225 222 222 222 220 217 214 206 202 198 198 190 182 172 162
280 277 275 272 272 270 267 264 265 266 267 267 269 271 261 255 249 244 249 251 253 246 239 237 239 236 231 230 226 225 222 222 220 218 214 206 203 199 198 193 185 178 169
278 276 275 274 272 271 269 266 263 262 263 264 264 263 261 252 250 245 248 247 253 249 243 242 238 236 238 231 225 223 218 219 219 218 212 209 202 197 197 193 186 180 174
280 277 276 275 275 273 272 270 266 261 259 259 258 259 258 258 250 247 250 251 245 250 245 243 241 242 241 232 222 222 217 214 212 212 208 206 203 199 196 194 187 180 180
281 280 278 276 275 274 273 272 269 266 260 256 256 257 258 256 254 245 242 250 252 245 247 245 242 243 240 231 222 219 214 211 208 209 208 206 200 197 195 194 188 187 183
Wind_Speed_850mb
62 74 83 95 101 102 95 93 89 82 79 79 75 71 69 64 58 54 48 45 44 41 37 34 31 32 32 35 40 43 45 46 62 79 75 74 69 67 69 69 76 86 87
42 57 68 78 87 94 94 92 88 82 79 77 76 75 72 68 62 59 53 50 47 45 40 38 34 34 34 36 40 45 47 51 57 76 79 78 73 71 72 77 82 85 86
29 41 52 65 75 83 86 88 87 82 80 79 79 79 76 70 67 62 57 54 50 47 44 41 37 37 36 36 40 46 50 55 56 64 77 73 74 70 73 82 87 88 83
20 28 39 49 60 68 74 82 84 82 79 79 80 79 76 72 68 65 61 58 53 52 48 44 42 39 36 36 41 46 51 55 57 60 67 70 68 68 72 87 97 84 88
11 19 27 36 44 54 63 70 75 77 76 78 79 78 77 76 75 70 66 61 58 56 52 49 45 40 36 37 41 45 50 54 55 60 64 66 70 66 78 83 88 88 82
6 9 18 25 33 40 48 57 64 69 75 77 78 80 80 80 77 71 67 64 61 59 55 51 47 41 38 38 41 44 47 50 51 54 57 56 64 70 74 76 78 83 80
15 6 5 17 28 35 40 47 55 61 66 73 77 79 82 81 77 72 69 66 64 60 56 53 50 43 40 39 40 44 45 45 47 49 53 55 59 61 68 71 65 68 69
22 17 9 7 15 27 39 48 54 59 65 70 73 77 79 79 78 73 70 68 66 62 59 56 52 46 41 39 39 42 43 40 44 48 47 45 47 54 56 58 61 64 62
27 26 22 17 13 18 28 39 48 59 64 68 71 74 77 80 77 75 74 73 71 67 63 60 55 48 41 39 38 39 40 40 43 42 39 37 40 46 48 50 52 57 59
34 32 29 26 24 21 20 27 37 46 54 65 72 75 77 78 76 76 77 77 75 72 67 65 58 50 44 40 37 36 37 38 40 37 36 35 36 39 42 44 44 45 44
37 34 33 30 29 27 26 27 29 35 44 52 62 72 76 75 76 76 80 82 78 74 72 68 60 51 47 41 37 33 34 36 35 33 30 28 31 34 35 39 39 38 36
36 37 33 32 32 34 32 27 28 32 36 44 51 60 69 71 73 75 81 81 75 75 73 65 58 52 48 42 37 32 33 33 29 27 24 23 25 29 34 36 33 30 30
28 29 32 33 32 31 34 36 32 29 31 37 45 53 62 65 68 71 79 80 76 75 69 62 56 54 49 46 38 34 32 28 24 22 19 15 18 23 29 36 30 23 24
35 31 30 31 31 30 28 31 36 38 34 32 38 46 51 58 64 69 79 80 79 75 71 66 63 59 54 49 42 37 32 26 22 18 15 10 12 16 23 29 22 11 16
43 40 37 36 35 35 34 32 28 29 36 40 38 37 41 51 56 60 74 85 85 80 76 74 72 68 63 55 48 40 35 28 23 18 14 6 4 8 14 20 19 16 15
52 50 46 43 42 41 41 40 29 26 25 35 41 39 39 38 41 43 61 77 80 84 82 83 78 73 67 58 52 45 39 31 25 22 19 12 7 3 7 11 15 13 13
59 57 55 53 50 47 47 45 45 35 31 24 33 37 40 38 33 41 45 63 80 84 86 84 80 75 69 63 57 50 40 33 28 26 23 19 15 11 9 8 11 12 9
67 66 64 61 61 57 52 50 49 47 49 42 27 32 35 34 35 35 37 47 69 87 86 86 80 77 73 67 61 53 45 40 33 31 29 25 22 18 14 14 12 12 10
80 77 73 72 70 68 62 57 53 52 48 49 43 32 31 33 36 42 44 63 73 83 87 82 79 80 74 70 64 56 51 43 37 36 34 29 28 25 22 20 18 14 11
87 83 79 79 78 76 72 65 62 57 53 50 49 39 30 34 36 49 59 66 72 76 74 72 78 86 71 69 66 60 56 51 46 43 39 34 33 32 28 24 22 19 19
82 82 81 81 83 80 77 75 70 68 62 56 52 49 33 34 44 50 65 77 78 76 69 68 78 78 72 68 68 66 62 57 50 44 42 38 36 38 35 30 27 25 26
69 74 75 79 81 83 83 81 80 77 67 64 61 54 52 49 45 56 62 75 83 86 82 81 82 83 77 80 72 72 70 64 56 49 46 43 41 42 40 36 36 34 36
65 68 72 77 78 79 82 86 86 83 77 71 66 60 51 57 54 52 61 67 71 76 76 79 87 85 85 84 76 77 75 69 59 49 46 47 47 45 45 41 42 43 44
59 63 67 71 72 74 78 81 83 85 82 77 69 62 56 55 60 53 58 59 66 69 65 73 78 81 90 86 81 80 76 70 61 51 45 49 49 49 50 46 48 48 47
58 61 64 67 70 71 73 76 78 82 82 80 76 71 63 60 62 59 54 58 60 66 68 71 72 74 78 79 83 83 80 73 64 58 53 52 50 52 53 50 53 56 53
61 64 66 66 67 69 71 73 75 76 81 82 78 72 67 60 61 63 60 51 58 60 63 70 67 68 69 72 79 84 83 77 71 64 58 57 58 60 60 57 58 59 59
Wind_Direction_850mb
224 224 223 223 223 224 225 223 222 222 220 221 223 224 227 230 234 238 242 246 248 247 246 250 257 269 284 292 299 303 301 295 291 309 309 316 315 314 317 322 328 327 329
230 226 225 225 224 224 224 222 221 222 223 223 223 225 227 231 235 240 243 248 249 248 247 249 254 265 277 289 299 304 303 300 295 303 313 317 316 320 322 324 329 330 332
227 226 226 226 226 225 224 222 221 223 224 224 225 228 230 233 237 241 244 246 247 247 246 248 253 261 274 288 299 304 305 304 303 301 309 313 318 327 324 324 330 331 334
214 222 225 227 228 227 227 224 223 225 226 227 228 231 233 236 239 241 242 244 246 246 245 246 250 259 272 287 297 303 304 306 307 307 310 315 322 327 321 325 327 334 334
189 212 223 224 227 229 230 229 228 228 230 231 232 234 235 237 238 239 240 242 244 244 243 245 249 257 269 282 293 301 305 309 310 311 312 319 324 319 324 324 325 331 336
91 186 210 217 221 225 227 228 229 230 230 231 232 234 236 238 239 239 240 241 243 242 242 243 246 252 264 277 289 298 305 311 310 309 311 309 312 315 316 324 328 334 335
32 46 215 217 217 215 220 222 226 229 231 233 234 236 238 239 240 239 239 240 241 242 241 241 244 250 260 274 287 297 304 311 310 308 303 305 308 311 316 323 329 328 329
29 18 354 285 240 230 225 222 223 228 231 235 237 239 240 241 240 238 239 240 240 239 238 239 242 247 256 270 283 294 302 308 307 307 308 313 309 310 316 321 326 327 330
31 29 16 350 314 266 244 240 238 234 233 234 237 240 241 241 240 237 236 237 238 237 236 237 239 244 252 264 278 291 301 308 309 313 313 314 311 314 318 325 328 331 335
25 20 15 7 351 326 290 260 249 247 245 241 240 239 241 242 241 238 237 236 236 236 233 234 235 241 248 259 273 287 298 305 312 313 315 318 319 319 325 327 329 337 340
16 12 10 4 353 348 326 296 271 260 254 251 247 243 244 241 240 238 237 236 237 235 234 234 234 237 245 255 267 283 294 302 309 314 314 318 320 323 327 324 327 335 342
357 356 0 1 360 354 350 327 292 275 263 256 253 250 244 240 239 237 234 235 236 237 236 234 233 234 240 249 261 276 286 298 306 309 310 319 324 327 330 330 330 339 347
351 342 340 345 353 354 354 347 334 305 280 268 261 258 253 245 239 234 231 231 233 234 234 233 232 234 237 243 252 265 277 284 291 295 299 314 328 339 346 348 344 354 360
341 339 333 328 324 332 337 345 349 335 307 282 273 268 265 255 242 236 229 226 228 229 228 227 227 231 234 238 243 253 262 268 273 278 280 304 334 353 360 1 4 10 25
326 327 329 327 324 316 314 324 330 332 319 299 281 275 270 263 253 244 234 227 227 225 223 223 224 226 229 232 236 244 251 253 253 257 254 257 317 7 22 21 34 61 69
311 314 316 317 318 318 315 305 303 310 310 305 294 269 265 266 267 252 235 232 232 231 225 223 225 228 230 231 233 238 242 241 238 240 231 209 183 136 76 57 60 58 72
301 300 302 305 306 308 308 311 307 291 299 304 302 289 269 262 256 259 248 231 232 232 231 229 227 229 230 229 231 235 238 237 231 230 223 206 178 175 138 129 86 64 48
289 290 292 292 293 294 296 302 305 305 299 297 298 296 284 266 252 242 237 229 228 231 231 231 228 229 229 229 230 231 233 232 228 225 218 206 186 181 173 166 127 89 77
284 283 282 283 282 283 286 289 292 295 294 288 290 288 289 269 251 241 227 227 226 228 228 226 228 231 230 229 228 228 231 231 228 223 216 205 197 187 183 178 156 120 109
279 277 276 275 276 276 277 279 281 284 285 283 278 284 282 265 246 240 234 229 228 230 232 230 229 233 229 229 228 225 227 226 222 219 213 206 200 193 187 185 170 148 134
277 275 273 270 268 269 270 271 274 274 273 276 274 268 266 269 251 249 245 237 232 232 230 228 233 228 228 230 225 223 225 226 224 219 214 206 203 197 190 187 180 162 152
277 275 273 270 268 266 265 266 267 269 271 273 276 271 259 251 245 246 250 252 243 239 235 234 236 227 229 231 225 222 222 222 220 217 214 206 202 198 198 190 182 172 162
280 277 275 272 272 270 267 264 265 266 267 267 269 271 261 255 249 244 249 251 253 246 239 237 239 236 231 230 226 225 222 222 220 218 214 206 203 199 198 193 185 178 169
278 276 275 274 272 271 269 266 263 262 263 264 264 263 261 252 250 245 248 247 253 249 243 242 238 236 238 231 225 223 218 219 219 218 212 209 202 197 197 193 186 180 174
280 277 276 275 275 273 272 270 266 261 259 259 258 259 258 258 250 247 250 251 245 250 245 243 241 242 241 232 222 222 217 214 212 212 208 206 203 199 196 194 187 180 180
281 280 278 276 275 274 273 272 269 266 260 256 256 257 258 256 254 245 242 250 252 245 247 245 242 243 240 231 222 219 214 211 208 209 208 206 200 197 195 194 188 187 183